Wind_Speed
29 26 24 24 25 23 22 23 23 24 26 26 25 25 28 33 35 34 35 35 34 32 31 29 28 25 23 22 20 19 17 16 15 14 13 13 12 10 10 10 9 8 7 7 7 7 7 6 6 6 7 7 8 9 10 11 12 13 13 14 14 15 16
33 30 27 27 28 26 23 23 24 26 27 27 27 28 29 33 36 36 36 37 35 34 32 31 29 28 25 24 23 21 19 17 16 16 15 14 13 12 12 12 10 9 9 8 8 8 8 7 7 7 8 9 9 10 12 13 13 14 15 15 15 15 17
37 33 30 30 30 27 24 22 23 25 26 26 29 31 30 32 36 37 38 38 37 35 34 33 32 30 28 27 26 23 21 20 19 19 17 16 15 15 14 13 12 11 11 10 10 9 9 8 8 8 9 10 11 11 13 14 14 14 15 16 16 16 17
40 37 33 32 31 28 24 24 24 24 26 27 30 32 30 30 34 38 39 40 39 38 37 36 34 33 31 29 27 25 23 23 22 21 20 19 19 18 16 14 14 14 14 13 12 11 10 9 9 10 11 11 12 12 13 14 14 14 15 16 17 18 18
42 40 35 34 33 29 27 27 26 25 27 31 33 33 31 30 33 40 42 43 42 41 40 38 36 34 32 30 28 26 26 25 24 23 23 22 21 19 18 17 17 17 16 15 14 13 12 11 11 11 12 13 13 14 14 14 15 15 16 17 18 19 20
45 42 38 37 36 33 30 29 28 27 28 31 34 34 33 31 33 40 45 45 45 44 42 40 38 36 34 32 30 29 27 26 24 23 22 22 22 21 21 20 20 19 18 18 17 15 14 14 14 14 14 14 15 15 15 15 16 17 18 19 20 21 22
47 44 42 41 39 36 33 30 28 27 26 29 32 33 33 34 34 39 46 47 47 45 43 41 39 38 36 34 33 31 28 25 24 23 23 23 23 23 22 22 21 21 21 21 20 19 18 17 17 16 16 16 17 17 18 18 18 19 20 21 22 23 25
49 46 44 43 42 38 34 30 28 26 24 26 29 31 33 35 35 38 45 48 48 46 44 42 40 38 37 37 35 32 29 27 26 26 26 26 25 25 24 23 23 24 25 24 23 23 22 20 20 19 19 19 19 20 20 21 21 22 22 23 24 25 27
51 49 47 45 42 40 36 32 30 27 26 26 28 30 32 34 34 37 44 47 47 47 45 43 41 40 39 38 35 33 31 30 30 29 29 29 28 26 25 24 25 26 26 26 26 26 24 23 22 22 22 21 21 22 23 24 24 25 25 26 26 27 29
53 51 50 47 43 41 38 35 32 30 29 29 29 29 30 32 34 37 42 46 47 48 46 43 42 41 40 39 36 34 32 32 32 31 30 30 28 27 26 26 27 28 28 28 28 27 26 26 25 25 24 24 24 24 25 27 28 28 29 29 29 29 31
54 53 52 48 44 42 41 39 36 34 32 30 29 29 31 33 36 39 43 46 48 48 46 44 44 42 41 40 37 36 35 34 33 33 32 31 30 29 28 29 29 30 30 30 30 29 28 28 28 27 27 27 27 28 28 30 31 32 32 32 32 32 32
55 54 53 49 46 45 45 44 42 38 35 32 30 31 33 35 38 41 45 47 48 48 47 46 45 44 43 41 39 38 37 36 36 35 35 33 32 32 31 31 32 32 32 32 32 32 31 31 30 30 30 30 31 31 31 33 34 35 35 35 35 34 34
57 57 55 52 50 48 48 48 45 40 38 35 32 33 36 38 39 42 46 47 48 47 48 48 47 46 45 43 41 40 39 39 38 37 36 36 35 34 34 34 34 34 33 34 34 34 33 33 33 33 33 33 34 34 35 35 36 37 37 37 37 37 37
58 59 58 55 52 50 51 50 46 42 40 37 35 34 37 40 41 43 45 47 47 47 48 48 48 48 46 44 43 42 42 41 39 39 38 37 36 35 35 35 35 35 34 35 35 35 35 35 35 35 35 36 36 37 38 38 39 39 39 39 39 40 40
57 58 58 56 53 52 53 51 47 43 41 39 38 36 38 41 42 43 45 46 47 48 49 48 48 47 46 44 43 43 42 41 40 39 39 37 37 36 36 35 36 36 35 35 35 35 36 36 36 37 37 38 39 39 40 41 41 41 41 41 41 42 43
54 55 57 56 54 54 54 49 46 46 44 42 40 37 38 41 43 44 45 46 47 48 48 48 47 46 45 44 43 43 42 42 41 40 39 38 37 36 36 36 36 37 37 36 37 37 37 38 38 38 39 40 41 42 42 43 43 43 43 42 42 43 44
52 53 54 56 55 56 54 50 47 48 48 46 42 38 37 39 41 43 45 46 47 48 48 48 47 47 46 45 45 44 43 43 42 41 40 38 38 37 37 37 38 39 39 39 39 39 39 39 40 40 41 42 43 44 44 44 44 44 44 44 44 45 46
49 50 52 55 57 58 59 56 53 52 52 51 48 44 41 40 41 42 43 45 46 47 48 48 48 48 48 47 46 45 44 43 43 42 41 40 40 39 39 39 39 40 40 40 40 40 40 40 41 41 42 43 44 44 45 45 45 46 46 46 47 48 49
46 49 52 55 58 60 62 60 57 56 55 54 53 50 46 43 43 43 42 43 44 45 47 48 48 49 48 48 47 46 45 44 44 43 42 42 41 41 40 40 40 41 41 40 40 40 41 41 42 43 44 44 45 45 46 47 48 49 49 49 49 50 52
42 45 49 54 57 59 61 61 61 60 59 57 55 53 50 47 46 45 44 43 44 45 46 47 48 49 48 48 47 46 46 45 44 44 43 43 42 42 42 42 42 41 41 41 41 41 42 43 44 44 45 45 46 47 48 49 50 51 52 52 53 53 55
40 43 46 51 56 58 60 62 62 61 60 60 58 55 53 51 49 48 47 46 46 45 45 46 47 48 48 48 47 47 46 46 45 44 44 43 43 43 43 44 43 42 42 42 42 43 44 45 45 45 45 46 47 49 50 51 52 54 55 55 56 56 57
41 41 41 46 52 58 60 62 61 58 57 59 60 58 56 54 52 50 49 48 47 46 45 45 45 46 47 47 47 47 47 46 46 45 44 44 44 44 44 45 44 43 43 43 44 45 45 45 46 46 47 48 49 51 53 54 56 57 58 57 56 55 53
38 36 38 43 50 55 59 62 63 60 56 56 57 58 58 57 54 52 51 50 49 49 47 46 45 45 45 46 46 46 46 46 45 44 44 45 45 45 45 45 45 44 44 44 45 46 46 47 48 49 50 51 52 53 55 56 56 57 56 55 53 49 47
37 37 40 44 46 50 55 60 63 63 61 58 56 57 58 58 57 56 54 53 52 51 50 49 48 47 46 46 46 45 45 45 45 45 45 46 46 46 45 45 46 45 46 46 47 48 48 49 50 51 52 53 53 54 53 53 52 51 50 48 46 44 42
39 40 43 43 42 45 50 55 58 61 62 61 60 59 59 58 57 56 56 55 54 53 52 51 50 49 48 48 47 46 46 47 47 47 47 47 47 47 47 47 47 48 48 49 49 50 50 51 52 52 52 51 50 49 48 46 45 44 43 42 41 41 40
43 44 44 42 42 44 46 48 52 56 59 60 61 61 60 59 57 56 56 56 55 55 55 53 52 51 50 50 49 49 49 49 49 49 48 48 48 48 49 49 49 50 50 50 50 50 50 50 49 48 47 45 43 42 42 41 40 40 40 40 39 39 39
46 46 45 43 44 45 44 45 48 51 54 57 59 59 59 59 59 58 57 56 56 56 56 55 54 53 53 52 52 51 51 51 51 51 50 49 49 49 50 50 49 49 49 48 48 47 46 45 43 42 41 40 39 39 39 39 39 39 40 40 39 38 38
48 47 46 45 46 45 43 44 46 47 50 52 54 55 56 57 57 57 57 57 57 56 56 55 55 55 55 54 54 53 53 52 52 51 50 49 48 47 47 46 45 44 43 43 42 40 39 39 37 37 37 37 38 38 38 38 38 39 40 40 40 39 39
49 47 46 46 46 45 45 45 44 45 45 46 48 49 51 52 52 53 53 53 53 54 53 54 54 54 54 54 53 52 51 51 50 48 46 44 43 42 42 41 40 40 39 38 37 36 36 35 35 35 36 36 37 38 38 38 38 39 41 42 42 42 42
50 49 47 46 46 47 47 45 45 44 44 44 44 45 45 46 47 47 47 47 47 47 47 47 47 47 47 46 45 45 43 43 42 41 40 39 39 38 38 38 38 37 37 37 36 35 35 35 35 35 36 36 37 38 38 39 39 40 42 43 44 44 45
53 50 49 48 47 48 48 46 46 46 45 44 44 43 43 43 43 43 43 43 43 42 41 41 40 39 39 38 37 37 37 38 38 39 38 38 37 38 38 38 37 37 37 37 37 37 37 37 37 37 37 38 38 39 39 40 40 42 43 43 44 46 47
55 52 51 51 51 51 50 48 47 47 47 46 46 45 44 43 43 42 42 42 41 40 39 39 38 38 38 37 37 38 38 38 39 40 39 39 38 39 39 39 39 39 39 39 39 39 39 39 38 38 39 39 39 40 41 41 42 43 43 44 45 48 49
59 55 54 55 55 54 52 49 48 48 48 48 47 46 45 44 44 43 42 42 41 41 40 40 39 39 40 40 40 40 40 40 40 41 40 40 40 41 41 41 41 41 41 42 42 42 42 42 41 41 41 41 41 42 43 44 45 46 45 45 47 50 52
63 58 56 57 57 57 54 52 50 49 49 49 49 48 47 46 45 44 43 43 43 43 42 42 42 42 42 42 41 41 41 41 42 42 42 42 42 43 43 44 44 44 44 45 45 45 44 44 44 44 44 44 45 46 46 48 49 49 49 49 49 51 53
66 63 60 58 59 59 58 56 54 53 52 52 51 50 49 48 47 46 45 45 45 45 45 44 44 45 44 43 42 42 43 44 44 44 44 44 45 46 46 46 47 47 47 47 47 47 47 47 47 47 47 48 48 49 50 51 52 52 52 53 52 53 54
69 67 65 62 61 61 61 60 59 58 57 55 54 52 51 51 50 49 49 48 47 47 47 47 48 47 46 46 46 46 47 48 47 46 47 47 48 49 49 49 49 49 49 49 50 50 50 50 50 50 51 51 52 52 53 54 55 55 56 56 56 55 55
70 70 69 66 64 63 63 63 62 61 60 59 57 55 54 53 52 52 51 50 50 50 50 50 50 49 49 50 51 50 51 51 50 49 51 52 52 52 52 52 52 52 52 52 53 53 54 54 53 54 54 54 55 56 56 57 57 58 58 58 58 58 58
72 71 70 69 68 66 65 65 65 64 63 61 60 59 58 56 56 55 54 54 53 53 53 53 53 53 54 54 54 54 54 54 53 53 55 56 55 55 56 55 55 56 56 56 56 57 57 57 57 57 57 57 58 58 59 59 60 61 61 61 61 60 60
Wind_Direction
222 223 227 231 235 236 233 226 227 230 229 225 224 228 234 231 220 209 201 198 197 199 202 204 206 206 206 208 210 211 211 211 212 214 214 215 217 219 222 226 225 223 221 222 226 231 236 241 247 253 264 276 288 296 305 311 316 319 321 323 325 327 329
222 221 225 232 235 236 237 232 228 229 228 226 224 224 230 231 222 211 204 200 198 199 203 205 207 208 208 210 213 214 215 217 219 222 224 225 226 229 232 236 238 241 240 241 241 241 245 251 258 266 274 282 290 298 305 310 313 314 316 317 318 320 321
225 222 225 231 235 238 241 240 235 230 226 225 225 223 226 229 225 215 206 202 199 200 203 206 208 209 209 212 215 215 217 220 223 226 229 232 234 236 239 243 249 253 253 252 249 245 247 252 259 269 278 283 291 300 305 309 311 312 312 313 314 314 315
225 224 225 229 233 236 239 242 241 236 229 227 228 226 225 228 227 219 210 203 201 201 203 206 208 209 211 214 217 218 219 222 225 228 230 232 235 238 242 246 250 252 254 254 251 248 249 253 260 269 277 283 288 295 301 305 308 309 309 310 310 311 311
224 223 225 228 229 232 234 235 238 237 232 229 231 230 228 228 228 222 214 207 204 203 204 206 208 210 212 215 218 219 220 222 224 226 229 232 236 239 241 244 246 249 254 256 253 252 253 257 262 269 277 283 287 290 294 298 302 304 305 306 307 308 309
221 220 222 226 227 229 231 231 234 237 234 230 231 233 231 229 228 225 219 212 208 205 205 206 207 209 211 213 216 218 218 220 222 225 230 233 236 238 239 241 244 248 251 252 250 251 255 260 266 272 277 282 286 289 292 295 297 299 300 302 303 305 306
219 217 219 224 225 226 229 231 236 242 241 235 232 232 231 228 226 227 223 217 212 209 207 207 207 208 210 212 214 217 217 218 220 224 228 232 235 237 239 241 243 244 246 246 245 248 252 258 264 270 274 280 284 288 293 295 297 298 299 300 301 301 302
218 217 217 222 224 224 226 230 236 241 243 238 230 227 227 225 223 225 224 220 216 212 210 209 209 208 210 212 215 217 218 219 222 225 228 232 235 238 240 242 242 242 243 243 243 245 249 254 260 266 271 277 283 288 292 295 298 299 299 300 300 300 301
217 217 217 219 223 223 224 229 234 235 236 232 225 223 225 223 221 222 223 222 219 216 213 211 211 211 212 214 217 219 221 224 226 228 230 233 237 240 243 245 245 245 245 244 243 245 249 253 258 263 269 274 281 286 291 295 297 299 300 300 300 300 300
214 217 218 217 219 221 222 227 231 232 232 228 221 220 222 221 218 217 220 221 220 218 216 214 214 214 215 217 220 223 226 229 231 233 234 236 239 242 246 249 251 250 249 248 247 248 251 255 259 264 270 275 279 284 290 294 297 298 300 301 301 301 300
213 216 218 216 216 219 221 223 227 229 230 230 223 218 216 217 217 215 215 217 219 218 217 216 217 217 218 220 222 225 229 232 234 235 237 238 241 244 248 251 253 253 253 252 252 254 256 259 262 266 271 275 279 284 290 293 295 298 300 301 301 300 299
215 216 217 216 215 217 219 221 224 224 225 226 225 219 215 214 215 215 214 215 217 217 217 218 219 220 221 223 225 228 231 234 235 236 238 240 242 245 247 250 252 254 255 255 256 257 259 262 265 268 271 275 280 285 289 292 294 297 298 299 299 298 298
215 215 216 215 214 216 219 220 221 221 220 222 225 221 217 214 213 214 215 215 216 217 218 219 221 222 223 225 227 230 232 234 236 237 239 241 244 245 247 249 252 253 255 256 257 259 261 264 267 270 273 277 282 286 289 291 293 294 296 296 296 296 297
217 215 215 214 213 216 220 220 219 221 221 222 224 223 220 217 215 214 214 215 216 218 219 221 223 224 225 226 228 231 233 234 236 238 240 242 244 246 247 249 252 254 255 257 259 261 263 266 268 271 274 278 281 284 287 289 290 292 293 294 294 295 297
219 217 216 215 213 216 221 220 218 221 224 224 226 226 224 221 218 216 215 215 216 218 220 222 224 226 227 228 229 231 233 235 237 239 241 242 244 246 248 250 253 255 257 258 260 262 264 266 268 270 273 276 279 282 285 287 289 291 292 293 294 296 297
221 218 218 216 213 216 221 222 221 223 227 228 228 227 226 223 220 218 217 216 218 219 222 223 225 227 229 230 230 232 235 237 238 240 241 243 244 246 248 250 252 255 256 258 258 260 261 263 265 268 271 275 278 282 285 287 290 291 293 294 294 295 296
221 218 218 217 215 216 220 224 225 226 229 230 230 229 229 227 225 223 221 219 220 221 222 224 226 228 230 231 232 233 235 238 240 241 243 244 245 246 248 249 251 254 255 256 257 259 261 263 266 270 273 277 280 283 286 288 290 291 291 292 293 294 295
221 217 217 218 216 216 219 222 224 226 229 231 232 233 233 231 229 228 226 224 223 223 224 225 226 228 229 232 233 234 236 238 241 242 244 245 246 247 249 250 252 254 255 257 259 261 264 267 270 273 276 279 281 284 286 287 288 289 290 291 293 294 295
224 219 216 217 218 217 218 220 222 224 227 229 231 232 231 230 230 230 228 227 226 226 226 227 228 229 230 232 234 235 237 238 240 242 243 245 247 248 250 251 252 255 257 260 262 265 267 270 272 274 277 279 281 283 284 286 287 289 290 292 293 294 294
227 222 219 219 219 220 220 221 222 223 225 227 230 230 230 229 230 230 230 229 228 227 228 229 230 231 232 233 235 236 238 238 240 242 244 246 248 250 252 253 254 256 259 262 265 267 269 270 272 274 277 279 281 283 284 286 287 289 290 291 292 293 294
227 224 220 220 221 221 222 222 223 224 225 227 229 230 230 230 230 230 231 231 230 230 230 231 233 234 235 236 237 238 240 241 242 244 246 248 250 252 254 256 257 259 261 263 266 268 270 272 274 276 278 280 281 283 284 286 287 288 289 290 291 292 292
228 225 223 222 222 222 223 224 224 225 225 226 227 230 231 231 231 232 232 233 234 233 233 233 235 236 238 239 240 241 242 244 245 246 248 250 251 252 254 257 259 261 262 265 267 269 271 273 275 277 279 280 282 283 285 286 287 288 289 289 290 291 292
230 227 225 224 223 222 223 224 225 226 226 226 226 228 230 231 232 232 233 234 236 236 236 236 236 237 239 241 242 243 244 246 248 249 250 251 252 254 256 258 261 263 265 267 268 270 272 274 276 278 279 280 282 283 284 285 286 286 287 289 290 292 294
227 225 225 225 224 223 224 225 227 229 229 229 228 229 230 231 232 233 233 234 236 237 238 238 238 239 240 242 244 245 247 248 250 250 252 253 255 258 260 262 263 265 267 268 270 271 273 274 276 277 278 280 281 281 282 282 283 285 287 290 293 295 297
225 224 227 227 227 226 226 226 227 229 231 231 231 231 231 231 232 233 233 235 236 238 239 240 241 241 242 244 245 247 248 249 251 252 254 256 258 260 262 263 265 267 268 269 271 272 273 274 275 276 277 278 278 279 280 281 283 285 288 291 294 296 297
223 224 226 226 227 228 229 228 228 230 231 232 232 233 233 233 233 234 235 236 237 239 240 241 243 244 245 246 247 248 250 251 253 255 256 258 260 262 264 265 266 267 268 269 270 271 272 272 273 274 275 275 276 278 280 282 284 287 288 290 292 293 294
223 224 224 223 225 227 228 229 230 231 231 232 233 233 234 234 235 236 237 238 239 240 242 243 244 245 247 248 249 250 252 254 255 257 259 260 262 263 264 265 266 266 267 267 268 268 269 270 271 273 274 275 277 278 280 283 285 287 288 290 291 293 295
224 224 223 222 223 226 227 228 229 230 231 233 234 234 235 235 236 237 238 239 240 242 243 245 246 247 248 249 251 252 254 255 257 258 259 259 260 261 261 262 262 263 263 264 265 266 268 269 270 272 274 276 278 279 281 284 286 288 290 291 294 296 298
227 226 224 222 221 224 225 226 227 229 230 232 233 234 234 235 236 237 238 239 241 242 244 245 246 248 249 250 251 252 253 254 255 255 255 255 255 256 257 258 259 260 261 262 263 265 266 268 269 271 273 275 277 280 282 285 287 289 291 294 296 298 300
228 227 226 222 221 223 224 225 226 228 229 230 231 231 232 233 233 234 236 237 238 239 240 241 243 245 246 247 248 249 249 250 250 250 250 250 251 252 254 256 258 260 261 262 263 263 265 266 268 270 272 274 277 279 282 284 287 289 291 294 296 298 299
227 225 225 224 223 224 224 223 225 228 229 230 230 230 230 230 230 231 231 232 233 234 234 235 237 239 240 241 243 244 245 246 247 248 248 249 249 251 253 255 258 260 261 262 262 263 264 266 268 270 273 275 277 280 282 285 287 289 291 294 296 297 298
227 222 222 224 225 226 225 224 224 226 228 229 230 230 230 230 229 230 230 230 231 231 231 231 233 235 236 237 238 241 243 244 247 248 249 250 250 252 255 257 258 260 261 262 262 263 265 267 269 271 273 275 278 280 283 285 287 288 290 293 295 296 297
229 223 220 222 225 226 226 225 225 225 226 228 230 231 232 232 232 231 231 231 231 230 230 230 231 233 236 237 239 241 243 245 248 250 251 252 253 254 256 259 260 261 262 263 264 265 267 269 270 271 274 276 279 282 284 285 287 288 291 293 294 295 296
232 227 222 221 223 226 226 226 226 225 226 228 230 231 233 234 234 234 232 232 232 231 230 230 232 234 237 240 241 244 246 248 250 251 252 254 255 257 258 260 262 263 264 265 266 268 269 271 273 275 277 279 282 284 286 288 289 290 292 293 293 295 296
233 230 225 222 222 224 225 226 226 227 228 230 231 233 234 235 236 236 235 234 234 234 233 234 236 238 240 243 245 247 250 251 252 253 255 256 258 260 261 263 264 266 267 269 270 271 273 274 276 278 280 282 284 285 287 288 290 291 292 293 294 295 297
232 232 230 226 223 223 223 224 225 227 230 232 233 234 235 236 237 237 237 237 236 237 238 239 240 242 244 247 249 250 252 254 255 257 258 259 261 263 264 265 267 268 270 271 273 274 276 277 278 280 281 283 284 286 287 288 289 290 291 292 294 296 297
231 232 232 230 227 224 223 223 223 225 228 231 234 234 235 236 237 238 239 239 239 240 241 243 244 246 248 249 251 252 254 256 258 260 261 262 262 264 266 267 268 270 271 272 274 275 277 278 279 280 281 283 284 285 286 288 289 290 291 293 294 296 297
230 231 232 232 230 228 225 224 223 224 227 230 232 234 234 235 237 238 240 241 242 243 244 245 247 248 249 251 253 254 256 258 259 260 262 263 264 265 266 268 269 270 271 272 273 275 276 278 279 280 282 283 284 285 286 288 289 290 292 293 295 296 298
Height
10945 10947 10947 10947 10948 10949 10950 10952 10954 10956 10958 10959 10961 10964 10966 10968 10969 10971 10973 10975 10978 10982 10985 10988 10991 10993 10996 10997 10999 11000 11002 11003 11004 11005 11007 11008 11009 11009 11010 11010 11011 11011 11012 11012 11012 11012 11013 11013 11013 11013 11013 11013 11013 11013 11013 11013 11013 11012 11012 11011 11011 11010 11009
10941 10944 10946 10945 10945 10946 10948 10949 10950 10951 10954 10957 10959 10961 10963 10965 10967 10968 10971 10973 10977 10980 10983 10986 10989 10991 10994 10995 10997 10998 11000 11001 11002 11003 11004 11006 11007 11007 11008 11009 11009 11010 11010 11011 11011 11011 11011 11012 11012 11012 11012 11012 11012 11012 11012 11011 11011 11011 11010 11010 11009 11009 11008
10936 10940 10942 10942 10942 10944 10946 10948 10948 10948 10951 10954 10956 10958 10960 10962 10965 10967 10969 10972 10975 10978 10980 10983 10986 10989 10991 10993 10994 10996 10998 10999 11000 11001 11002 11003 11004 11005 11006 11007 11007 11008 11008 11009 11009 11009 11010 11010 11010 11011 11011 11011 11011 11011 11010 11010 11010 11009 11009 11008 11007 11007 11006
10932 10936 10938 10939 10940 10942 10944 10945 10947 10947 10948 10950 10952 10955 10957 10960 10963 10965 10967 10969 10972 10975 10977 10980 10983 10986 10988 10990 10992 10994 10995 10997 10998 10999 11000 11001 11002 11002 11003 11005 11005 11005 11006 11006 11007 11007 11008 11008 11009 11009 11009 11009 11009 11009 11009 11009 11008 11008 11007 11007 11006 11005 11005
10926 10930 10933 10935 10936 10939 10941 10942 10944 10944 10945 10947 10950 10953 10956 10958 10961 10963 10965 10967 10969 10971 10974 10977 10980 10983 10985 10987 10989 10991 10992 10994 10995 10996 10997 10998 10999 11000 11001 11002 11002 11002 11003 11004 11004 11005 11005 11006 11006 11007 11007 11007 11007 11007 11007 11007 11007 11006 11005 11005 11004 11004 11003
10920 10925 10928 10929 10931 10934 10936 10938 10940 10941 10943 10946 10948 10951 10953 10955 10958 10960 10963 10964 10966 10969 10971 10974 10976 10979 10982 10984 10986 10987 10989 10991 10993 10994 10995 10996 10997 10998 10998 10999 11000 11000 11001 11001 11002 11002 11003 11003 11004 11004 11005 11005 11005 11005 11005 11005 11005 11004 11004 11003 11003 11002 11001
10915 10920 10923 10924 10926 10929 10931 10934 10937 10939 10941 10943 10945 10947 10950 10952 10954 10957 10960 10962 10964 10967 10969 10971 10973 10976 10978 10980 10982 10985 10987 10989 10991 10992 10993 10993 10994 10995 10996 10997 10997 10998 10998 10998 10999 11000 11001 11001 11002 11002 11002 11002 11003 11002 11002 11002 11002 11002 11002 11002 11001 11000 10999
10910 10915 10918 10920 10922 10925 10928 10931 10933 10936 10939 10940 10942 10943 10945 10948 10950 10954 10957 10960 10962 10965 10967 10969 10971 10974 10976 10977 10980 10982 10985 10987 10988 10989 10989 10990 10991 10992 10993 10994 10995 10995 10995 10996 10997 10998 10998 10999 10999 11000 11000 11000 11000 11000 11000 11000 11000 11000 11000 11000 10999 10998 10997
10905 10909 10912 10915 10918 10922 10925 10927 10929 10932 10934 10936 10937 10938 10941 10945 10947 10951 10955 10958 10961 10962 10964 10967 10969 10972 10974 10975 10977 10980 10982 10983 10984 10985 10986 10987 10988 10990 10991 10992 10992 10992 10993 10994 10994 10995 10996 10997 10997 10997 10998 10998 10998 10998 10997 10997 10997 10997 10997 10997 10997 10996 10994
10901 10904 10906 10911 10915 10918 10921 10924 10926 10928 10929 10931 10933 10934 10938 10942 10944 10947 10951 10954 10957 10959 10962 10965 10967 10969 10971 10973 10975 10978 10979 10980 10981 10983 10984 10985 10987 10988 10989 10989 10990 10990 10990 10991 10992 10993 10993 10994 10994 10994 10995 10995 10995 10995 10995 10995 10994 10994 10994 10994 10994 10993 10992
10897 10900 10902 10907 10912 10914 10917 10920 10922 10923 10926 10928 10929 10931 10933 10937 10940 10942 10945 10948 10951 10955 10959 10962 10964 10966 10967 10969 10972 10974 10975 10977 10978 10980 10981 10983 10985 10986 10987 10987 10987 10987 10988 10988 10989 10990 10990 10991 10991 10992 10992 10992 10992 10992 10992 10992 10991 10991 10991 10991 10991 10990 10989
10895 10897 10899 10904 10908 10909 10912 10915 10916 10919 10923 10924 10926 10927 10929 10931 10935 10937 10940 10943 10946 10951 10955 10958 10960 10962 10964 10966 10969 10970 10971 10973 10975 10976 10978 10980 10981 10983 10984 10984 10984 10984 10985 10986 10986 10987 10987 10988 10988 10989 10989 10989 10989 10989 10989 10989 10988 10988 10988 10987 10986 10986 10985
10888 10890 10894 10897 10901 10904 10906 10908 10912 10916 10919 10920 10922 10924 10925 10927 10930 10933 10936 10939 10943 10947 10951 10953 10955 10958 10960 10963 10965 10966 10968 10969 10971 10973 10975 10977 10978 10979 10980 10980 10981 10982 10983 10983 10983 10984 10984 10985 10985 10985 10986 10986 10986 10986 10985 10985 10985 10984 10984 10983 10982 10981 10981
10879 10884 10888 10892 10898 10901 10900 10902 10908 10912 10915 10917 10919 10920 10922 10923 10925 10928 10932 10936 10940 10944 10946 10949 10952 10954 10957 10960 10961 10962 10964 10966 10968 10970 10972 10973 10975 10976 10977 10977 10978 10979 10979 10980 10980 10981 10981 10981 10981 10982 10982 10982 10982 10981 10981 10981 10981 10980 10980 10979 10978 10977 10976
10874 10880 10885 10890 10896 10897 10895 10899 10905 10909 10912 10914 10915 10917 10918 10920 10922 10925 10928 10932 10936 10939 10942 10945 10948 10950 10953 10956 10958 10959 10960 10963 10965 10966 10968 10970 10971 10972 10973 10974 10975 10975 10976 10976 10977 10978 10978 10978 10978 10978 10978 10978 10978 10977 10977 10977 10977 10976 10976 10975 10975 10973 10972
10870 10877 10882 10887 10893 10894 10894 10898 10903 10906 10909 10911 10912 10914 10916 10917 10919 10922 10925 10928 10932 10934 10938 10941 10944 10947 10950 10952 10954 10955 10957 10959 10960 10962 10964 10966 10967 10969 10970 10971 10971 10971 10972 10973 10973 10973 10974 10974 10974 10974 10974 10974 10974 10974 10973 10973 10972 10972 10971 10971 10971 10970 10968
10865 10872 10878 10884 10889 10892 10894 10897 10900 10903 10905 10907 10909 10911 10912 10914 10917 10919 10922 10925 10928 10930 10934 10937 10940 10943 10945 10947 10949 10952 10953 10955 10956 10958 10960 10962 10963 10964 10965 10967 10967 10967 10968 10968 10969 10969 10970 10970 10971 10971 10971 10971 10970 10970 10969 10968 10968 10967 10967 10967 10967 10966 10965
10862 10868 10873 10877 10882 10885 10887 10889 10893 10897 10899 10901 10903 10906 10908 10911 10913 10916 10919 10921 10924 10927 10930 10932 10935 10937 10939 10941 10944 10947 10949 10951 10952 10954 10956 10958 10959 10960 10962 10963 10963 10963 10963 10964 10965 10966 10967 10967 10967 10967 10967 10966 10966 10965 10964 10963 10963 10962 10962 10963 10962 10962 10960
10858 10863 10868 10871 10874 10876 10879 10883 10887 10890 10892 10895 10897 10900 10904 10907 10909 10912 10915 10918 10921 10923 10926 10928 10930 10932 10935 10937 10939 10942 10944 10947 10948 10950 10952 10953 10955 10956 10958 10959 10959 10959 10959 10960 10962 10963 10963 10964 10963 10963 10962 10962 10961 10961 10960 10959 10958 10957 10957 10957 10957 10957 10955
10855 10860 10864 10867 10868 10871 10874 10879 10881 10882 10885 10889 10891 10895 10899 10902 10905 10908 10910 10914 10916 10918 10921 10923 10926 10928 10931 10933 10935 10937 10940 10942 10944 10946 10948 10949 10951 10952 10953 10954 10954 10955 10956 10957 10958 10958 10958 10958 10958 10958 10958 10957 10957 10956 10955 10954 10953 10953 10952 10952 10952 10952 10950
10851 10855 10860 10863 10865 10867 10869 10873 10875 10878 10882 10885 10888 10892 10895 10898 10901 10903 10906 10909 10911 10914 10917 10920 10922 10925 10927 10929 10932 10934 10936 10938 10940 10942 10944 10945 10947 10948 10948 10948 10950 10952 10953 10953 10954 10953 10953 10953 10953 10954 10954 10953 10952 10951 10950 10949 10949 10947 10947 10947 10947 10947 10945
10847 10852 10858 10861 10861 10862 10864 10868 10871 10875 10878 10881 10884 10888 10891 10894 10897 10900 10903 10906 10908 10911 10914 10916 10919 10921 10923 10925 10928 10930 10931 10933 10936 10938 10939 10940 10941 10942 10943 10943 10945 10947 10948 10949 10949 10949 10949 10949 10949 10949 10949 10948 10948 10946 10945 10944 10943 10941 10940 10941 10941 10941 10940
10847 10852 10855 10854 10854 10857 10861 10864 10866 10869 10873 10877 10880 10883 10886 10890 10893 10896 10899 10902 10903 10906 10909 10911 10914 10916 10918 10920 10923 10926 10927 10929 10931 10933 10934 10935 10935 10937 10938 10939 10941 10942 10943 10944 10944 10944 10945 10945 10944 10944 10943 10943 10942 10941 10940 10939 10937 10935 10934 10934 10935 10935 10935
10844 10848 10847 10846 10850 10855 10857 10859 10861 10865 10869 10873 10876 10879 10882 10885 10888 10892 10895 10897 10899 10901 10904 10906 10908 10911 10914 10916 10918 10921 10923 10924 10926 10927 10928 10929 10930 10932 10934 10935 10936 10937 10938 10939 10939 10939 10940 10940 10939 10939 10938 10937 10937 10936 10934 10933 10932 10931 10929 10929 10929 10930 10929
10841 10842 10841 10845 10850 10851 10852 10855 10858 10861 10864 10868 10871 10873 10877 10881 10884 10887 10890 10892 10895 10897 10899 10901 10904 10906 10909 10911 10913 10916 10917 10918 10920 10921 10923 10925 10926 10928 10929 10930 10931 10932 10933 10933 10934 10934 10934 10934 10933 10933 10932 10932 10931 10930 10929 10928 10927 10927 10926 10925 10925 10925 10924
10837 10837 10839 10843 10846 10846 10848 10852 10855 10857 10860 10862 10864 10868 10872 10877 10880 10883 10885 10888 10890 10892 10894 10897 10899 10901 10904 10906 10908 10910 10911 10912 10914 10915 10918 10920 10921 10922 10923 10924 10925 10926 10927 10928 10928 10928 10928 10928 10927 10927 10926 10926 10925 10924 10923 10923 10922 10922 10921 10921 10921 10921 10920
10831 10833 10836 10840 10840 10842 10846 10849 10850 10853 10855 10857 10859 10864 10868 10871 10874 10877 10880 10883 10885 10887 10890 10893 10895 10897 10899 10900 10902 10904 10905 10907 10908 10910 10912 10914 10915 10916 10916 10917 10919 10920 10920 10921 10921 10922 10922 10922 10922 10921 10921 10920 10920 10919 10918 10918 10918 10917 10916 10916 10916 10916 10917
10825 10828 10832 10835 10836 10839 10843 10844 10846 10848 10850 10852 10856 10860 10863 10865 10869 10872 10875 10878 10880 10883 10886 10888 10890 10891 10893 10894 10896 10898 10900 10901 10902 10904 10906 10908 10909 10909 10910 10911 10913 10913 10914 10915 10916 10917 10917 10917 10917 10917 10916 10915 10914 10914 10914 10914 10913 10912 10911 10910 10910 10911 10911
10820 10823 10827 10830 10833 10837 10838 10840 10842 10844 10847 10849 10852 10855 10857 10860 10863 10866 10869 10873 10875 10878 10881 10882 10883 10885 10887 10889 10891 10893 10894 10896 10897 10898 10900 10901 10902 10903 10904 10905 10906 10907 10909 10910 10911 10912 10912 10912 10912 10912 10911 10911 10910 10909 10909 10909 10908 10907 10905 10905 10905 10905 10905
10815 10818 10822 10826 10830 10832 10833 10836 10839 10841 10843 10846 10847 10850 10853 10856 10858 10861 10864 10867 10869 10871 10874 10875 10877 10880 10882 10883 10885 10887 10889 10890 10891 10892 10894 10895 10897 10898 10898 10900 10901 10902 10903 10905 10906 10906 10906 10906 10907 10907 10906 10906 10906 10905 10905 10904 10904 10903 10902 10901 10901 10900 10900
10809 10814 10818 10822 10825 10826 10828 10832 10835 10837 10839 10841 10843 10846 10849 10851 10854 10857 10859 10861 10862 10865 10868 10870 10872 10874 10876 10878 10880 10881 10883 10884 10885 10886 10888 10890 10892 10893 10894 10895 10897 10897 10898 10899 10900 10901 10901 10901 10902 10902 10902 10901 10901 10901 10901 10900 10900 10899 10898 10898 10897 10896 10895
10805 10810 10814 10817 10819 10820 10823 10827 10830 10833 10835 10837 10839 10842 10844 10846 10849 10851 10853 10855 10857 10860 10862 10865 10867 10868 10869 10872 10874 10875 10877 10879 10879 10881 10883 10885 10887 10888 10889 10890 10891 10892 10893 10893 10894 10895 10895 10896 10897 10897 10897 10897 10897 10897 10896 10896 10895 10895 10895 10895 10893 10891 10888
10799 10804 10808 10811 10813 10815 10818 10822 10826 10828 10831 10832 10834 10836 10839 10841 10844 10846 10848 10851 10852 10855 10857 10859 10861 10862 10864 10866 10868 10870 10872 10873 10874 10876 10878 10880 10881 10883 10883 10884 10885 10886 10887 10887 10888 10889 10890 10890 10891 10891 10892 10892 10892 10892 10891 10891 10890 10890 10891 10891 10889 10885 10882
10792 10797 10801 10805 10808 10810 10813 10818 10821 10823 10826 10827 10828 10831 10834 10837 10838 10841 10843 10845 10847 10850 10852 10854 10856 10857 10859 10861 10863 10865 10867 10868 10869 10871 10872 10874 10875 10876 10877 10878 10878 10880 10881 10881 10882 10883 10884 10884 10884 10885 10886 10886 10886 10886 10885 10884 10883 10884 10884 10884 10883 10881 10878
10785 10790 10795 10799 10802 10805 10808 10812 10815 10817 10819 10820 10823 10826 10829 10832 10834 10836 10838 10840 10842 10845 10847 10849 10851 10852 10854 10856 10858 10860 10861 10861 10862 10864 10866 10868 10868 10869 10870 10871 10872 10873 10874 10874 10875 10876 10876 10877 10878 10879 10880 10880 10880 10880 10879 10877 10877 10877 10877 10877 10877 10876 10874
10777 10782 10787 10792 10795 10799 10802 10806 10809 10811 10813 10815 10818 10821 10824 10826 10829 10830 10832 10835 10837 10839 10841 10843 10845 10847 10850 10851 10852 10854 10854 10854 10856 10859 10860 10861 10861 10861 10862 10864 10865 10865 10867 10867 10868 10868 10869 10871 10872 10873 10874 10874 10873 10873 10873 10871 10870 10871 10871 10870 10870 10870 10868
10769 10774 10779 10784 10789 10793 10796 10800 10803 10805 10807 10810 10813 10816 10819 10821 10823 10825 10827 10829 10832 10834 10835 10837 10839 10842 10843 10843 10844 10847 10847 10848 10851 10853 10852 10852 10854 10855 10855 10857 10858 10858 10859 10861 10861 10861 10862 10864 10865 10867 10867 10867 10867 10866 10866 10865 10864 10863 10863 10863 10862 10862 10861
10762 10766 10771 10776 10781 10786 10789 10793 10797 10800 10803 10805 10808 10810 10813 10815 10817 10819 10821 10823 10825 10827 10829 10831 10833 10835 10835 10836 10838 10840 10841 10842 10845 10846 10844 10844 10847 10848 10848 10850 10851 10851 10852 10853 10854 10855 10856 10857 10858 10859 10860 10860 10859 10859 10858 10858 10858 10857 10856 10855 10855 10854 10852